Regional Weather Roundup
Issued by NWS

Home | Current Version | Previous Version | Graphics & Text | Print | Product List | Glossary Off
Versions: 1 2 3 4 5 6 7 8 9 10 11 12 13 14 15 16 17 18 19 20 21 22 23 24 25 26 27 28 29 30 31 32 33 34 35 36 37 38 39 40 41 42 43 44 45 46 47 48 49 50

000
ASUS43 KDMX 260701
RWRIA

WEATHER ROUNDUP FOR IOWA
NATIONAL WEATHER SERVICE DES MOINES IA
200 AM CDT MON JUN 26 2017

NOTE: "FAIR" INDICATES FEW OR NO CLOUDS BELOW 12,000 FEET WITH NO
SIGNIFICANT WEATHER AND/OR OBSTRUCTIONS TO VISIBILITY.

* - THESE STATIONS ARE NOT NWS STATIONS...THUS NOT UNDER NWS
QUALITY CONTROL.  THEY ALSO DO NOT REPORT WEATHER SUCH
AS PRECIPITATION OR FOG.

IAZ001>003-012>014-020>022-031>034-043>046-260800-
   NORTHWEST IOWA

CITY           SKY/WX    TMP DP  RH WIND       PRES   REMARKS
CARROLL *      CLOUDY    54  48  82 NW6       30.22R
CHEROKEE *     MOCLDY    53  51  92 N6        30.22S
DENISON *      RAIN      57  46  67 N17G24    30.24R
LE MARS *      CLOUDY    57  48  72 NE9G16    30.24R
ORANGE CITY *  LGT RAIN  55  52  88 NE5       30.23R
SHELDON *      LGT RAIN  54  52  94 SE3       30.20F
SIOUX CITY     LGT RAIN  57  51  80 E7        30.19F
SPENCER        LGT RAIN  55  52  89 W5        30.21F
STORM LAKE *   CLOUDY    54  50  87 NE6       30.21F
$$

IAZ055>058-069>071-079>083-090>094-260800-
   SOUTHWEST IOWA

CITY           SKY/WX    TMP DP  RH WIND       PRES   REMARKS
ATLANTIC *     MOCLDY    52  48  87 CALM      30.18F
AUDUBON *      CLEAR     48  45  87 CALM      30.19F
CLARINDA *       N/A     52  50  93 CALM      30.21F
COUNCIL BLFS * CLEAR     57  46  67 S7        30.17F
CRESTON *      CLEAR     55  45  67 SW3       30.20F
HARLAN  *      CLOUDY    50  48  93 CALM      30.20F
LAMONI         PTCLDY    57  47  69 SW5       30.20S
RED OAK *      CLEAR     54  50  87 CALM      30.19F
SHENANDOAH *   CLEAR     52  50  93 CALM      30.19F
$$

IAZ047>049-059>061-072>074-084-260800-
   CENTRAL IOWA

CITY           SKY/WX    TMP DP  RH WIND       PRES   REMARKS
AMES           CLOUDY    52  49  89 CALM      30.18S
ANKENY *       CLEAR     50  48  93 CALM      30.19S
BOONE *        PTCLDY    55  46  71 NW3       30.19R
CHARITON *     PTCLDY    54  48  82 CALM      30.18F
DES MOINES     CLEAR     56  51  84 CALM      30.18F
GRINNELL*      CLEAR     52  46  80 CALM      30.18F
KNOXVILLE *    PTCLDY    54  48  82 SW6       30.17F
MARSHALLTOWN   CLEAR     53  46  77 W5        30.16F
NEWTON *       CLEAR     54  45  71 CALM      30.17F
PELLA *        PTCLDY    50  47  87 CALM      30.19F
PERRY *          N/A     50  47  88 CALM      30.18F
$$

IAZ004>006-015-016-023>025-035-036-260800-
   NORTH CENTRAL IOWA

CITY           SKY/WX    TMP DP  RH WIND       PRES   REMARKS
ALGONA *       CLOUDY    55  54  94 W6        30.18F
CLARION *        N/A     55  54  94 NW13G24   30.20R
ESTHERVILLE    CLOUDY    54  52  93 NW8       30.19S
FORT DODGE *   CLOUDY    57  46  67 NW9G18    30.23R
MASON CITY     MOCLDY    54  46  74 W12       30.18S
FOREST CITY *  CLOUDY    55  43  62 W7        30.18R
WEBSTER CITY * LGT RAIN  57  48  72 NW17G24   30.20R
IOWA FALLS *   CLOUDY    57  48  72 W10       30.19S
$$

IAZ007>011-017>019-026>030-037>042-050>054-066-260800-
   NORTHEAST IOWA

CITY           SKY/WX    TMP DP  RH WIND       PRES   REMARKS
CEDAR RAPIDS   PTCLDY    49  45  86 W8        30.15S
CHARLES CITY * PTCLDY    52  46  82 W7        30.15S
CLINTON *      CLEAR     50  48  93 W10       30.14F
DECORAH *      CLOUDY    54  45  71 CALM      30.11F
DUBUQUE        CLEAR     52  45  77 W9        30.13F
MONTICELLO *   CLEAR     52  46  82 CALM      30.14S
WATERLOO       CLEAR     50  44  80 CALM      30.15S
$$

IAZ064-065-067-068-078-260800-
   EAST CENTRAL IOWA

CITY           SKY/WX    TMP DP  RH WIND       PRES   REMARKS
DAVENPORT      CLEAR     52  47  83 W7        30.15S
IOWA CITY      PTCLDY    53  46  77 W3        30.17F
MT. PLEASANT * CLEAR     51  46  80 W3        30.18S
MUSCATINE *    CLEAR     55  45  67 CALM      30.16F
QUAD CITIES    CLEAR     54  48  80 SW3       30.15S
$$

IAZ062-063-075>077-085>089-095>099-260800-
   SOUTHEAST IOWA

CITY           SKY/WX    TMP DP  RH WIND       PRES   REMARKS
BURLINGTON     CLEAR     55  47  74 W5        30.17F
FAIRFIELD *    CLEAR     52  45  76 W3        30.17F
FORT MADISON * PTCLDY    57  46  67 CALM      30.19S
KEOKUK *       PTCLDY    54  50  87 W5        30.18S
OSKALOOSA *      N/A     52  46  77 W3        30.18F
OTTUMWA        CLEAR     49  47  93 SW5       30.18F
WASHINGTON *   PTCLDY    52  46  82 W5        30.18F
$$

ABBREVIATIONS USED IN REMARKS
   TC - TEMPERATURES IN CELSIUS
  WCI - WIND CHILL INDEX
   HX - HEAT INDEX
  VSB - VISIBILITY
$$




USA.gov is the U.S. government's official web portal to all federal, state and local government web resources and services.